www.pogodaiklimat.ru

Погода и климат >> Архив погоды >> Россия >> Эвенкия >> Тура


ПОГОДА в Туре

АРХИВ ПОГОДЫ в Туре

Время (UTC), дата Ветер
(напр.,м/с)
 
Видим.   Явления Облачность Т
(С)
Тd
(С)
f
(%)
Тe
(С)
Тes
(С)
Комфортность P
(гПа)
Po
(гПа)
Тmin
(С)
Tmax
(С)
R
(мм)
R24
(мм)
S
(см)
00 11.01 штиль 0 н/о {снег} 10/0
[Ac und]
-32.4 -35.5 74 -32 -32 опасность
обморожения
1025.2 997.8 -32.5 0.5 48
03 11.01 штиль 0 20 км 10/0
[Ac trans Ci fib]
-33.1 -36.0 75 -33 -33 опасность
обморожения
1025.7 998.2 -33.5
06 11.01 штиль 0 20 км 10/3 1000 м
[Sc Ac trans Ci fib]
-32.8 -35.8 74 -33 -33 опасность
обморожения
1026.2 998.7
09 11.01 ЮВ 1 н/о {снег} 3/0
[Ci fib]
-34.9 -37.7 75 -40 -40 опасность
обморожения
1026.8 999.1
12 11.01 штиль 0 н/о {снег} ясно -36.5 -39.4 74 -37 -37 опасность
обморожения
1026.9 999.0 -32.4 0.2
15 11.01 штиль 0 н/о дымка ясно -38.7 -41.4 75 -39 -39 опасность
обморожения
1027.0 998.8
18 11.01 штиль 0 н/о слабый снег 10/0
[Ac As]
-38.8 -41.8 73 -39 -39 опасность
обморожения
1025.8 997.6
21 11.01 штиль 0 н/о слабый снег 10/0
[Ac As Cs]
-37.6 -40.5 74 -38 -38 опасность
обморожения
1023.6 995.7
00 12.01 ЮВ 1 н/о слабый снег 10/0
[Ac As]
-36.7 -39.4 76 -42 -42 опасность
обморожения
1020.4 992.6 -39.3 0.3 48
03 12.01 ЮВ 1 10 км слабый снег 10/0
[Ac As]
-34.2 -37.1 75 -39 -39 опасность
обморожения
1017.2 989.9
06 12.01 штиль 0 10 км слабый снег 10/0
[Ac As]
-32.6 -35.5 75 -33 -33 опасность
обморожения
1014.7 987.5
09 12.01 штиль 0 н/о {снег} 10/0
[Ac As Cs]
-33.0 -36.0 74 -33 -33 опасность
обморожения
1013.3 986.2
12 12.01 штиль 0 н/о слабый снег 10/0
[Ac As]
-32.8 -35.8 74 -33 -33 опасность
обморожения
1012.5 985.4 -32.0 0.8
15 12.01 ЮВ 1 н/о слабый снег 6/0
[Ac As]
-36.1 -39.0 74 -41 -41 опасность
обморожения
1012.2 984.8
18 12.01 штиль 0 н/о слабый снег 10/0
[Ac As]
-36.6 -39.4 75 -37 -37 опасность
обморожения
1011.5 984.0
21 12.01 штиль 0 н/о слабый снег 10/0
[Ac As]
-36.2 -39.0 75 -36 -36 опасность
обморожения
1009.5 982.2
00 13.01 штиль 0 н/о слабый снег 8/0
[Ac As]
-36.1 -39.0 74 -36 -36 опасность
обморожения
1008.8 981.5 -37.3 0.9 50
03 13.01 В 1 20 км {снег} 6/0
[Ac As]
-36.1 -39.0 74 -41 -41 опасность
обморожения
1007.7 980.4
06 13.01 ЮВ 2 20 км {снег} 10/0
[Ac und]
-36.0 -39.0 74 -44 -44 опасность
обморожения
1007.0 979.7
09 13.01 В 3 н/о 10/0
[Ac As]
-36.1 -39.0 74 -47 -47 опасность
обморожения
1006.3 979.0
12 13.01 ЮВ 1 н/о слабый снег 10/0
[Ac As]
-35.9 -38.7 75 -41 -41 опасность
обморожения
1005.3 978.0 -35.7 0.3
15 13.01 ЮВ 2 н/о слабый снег 10/0
[Ac As]
-35.3 -38.4 73 -44 -44 опасность
обморожения
1003.5 976.5
18 13.01 ЮВ 3 н/о слабый снег 10/0
[Ac As]
-34.8 -37.7 75 -45 -45 опасность
обморожения
1002.5 975.5
21 13.01 ЮВ 2 н/о {снег} 8/0
[Ac trans Ci fib]
-34.3 -37.1 76 -42 -42 опасность
обморожения
1002.5 975.6
00 14.01 В 2 н/о слабый снег 10/0
[Ac As]
-32.9 -35.8 75 -41 -41 опасность
обморожения
1002.5 975.7 -35.9 0.6 51
03 14.01 штиль 0 20 км {снег} 10/0
[Ac As Cs]
-34.5 -37.4 75 -35 -35 опасность
обморожения
1003.3 976.3
06 14.01 штиль 0 10 км слабый снег 10/0
[Ac As Cs]
-34.2 -37.1 75 -34 -34 опасность
обморожения
1004.1 977.2
09 14.01 штиль 0 н/о слабый снег 10/0
[Ac As Cs]
-35.1 -38.0 75 -35 -35 опасность
обморожения
1005.5 978.4
12 14.01 ЮВ 1 н/о {снег} 8/0
[Cs]
-37.8 -40.5 76 -43 -43 опасность
обморожения
1007.0 979.5 -32.4 0.3
15 14.01 штиль 0 н/о дымка 8/0
[Cs]
-39.5 -42.3 74 -40 -40 опасность
обморожения
1008.1 980.4
18 14.01 штиль 0 н/о дымка 4/0
[Ci fib]
-42.2 -45.6 69 -42 -42 опасность
обморожения
1009.4 981.4
21 14.01 штиль 0 н/о дымка 4/0
[Ci fib]
-44.2 -47.6 69 -44 -44 опасность
обморожения
1011.1 982.7
00 15.01 штиль 0 н/о дымка 3/0
[Ci fib]
-45.8 -49.2 68 -46 -46 опасность
обморожения
1012.1 983.5 -46.2 51
03 15.01 штиль 0 500 м туман ясно -47.1 -49.6 75 -47 -47 опасность
обморожения
1012.6 983.9 -47.1
06 15.01 штиль 0 500 м туман ясно -46.5 -49.6 70 -47 -46 опасность
обморожения
1013.3 984.6
09 15.01 штиль 0 н/о туман ясно -47.3 -49.6 77 -47 -47 опасность
обморожения
1014.5 985.8
12 15.01 штиль 0 н/о туман ясно -48.0 -51.2 69 -48 -48 опасность
обморожения
1016.0 987.1 -45.8
15 15.01 СЗ 1 н/о туман ясно -48.8 -52.4 66 -55 -55 опасность
обморожения
1017.1 987.9
18 15.01 СЗ 1 н/о туман ясно -48.1 -51.2 70 -54 -54 опасность
обморожения
1017.1 988.1
21 15.01 штиль 0 н/о туман ясно -49.7 -52.4 73 -50 -50 опасность
обморожения
1017.5 988.2
00 16.01 штиль 0 н/о туман ясно -50.7 -53.7 70 -51 -51 опасность
обморожения
1017.6 988.2 -50.7 51
03 16.01 штиль 0 500 м туман ясно -50.1 -53.7 65 -50 -50 опасность
обморожения
1017.5 988.2
06 16.01 штиль 0 500 м туман ясно -49.7 -52.4 73 -50 -50 опасность
обморожения
1017.0 987.7
09 16.01 штиль 0 н/о туман ясно -49.2 -52.4 69 -49 -49 опасность
обморожения
1016.4 987.4
12 16.01 штиль 0 н/о туман ясно -48.6 -52.4 64 -49 -49 опасность
обморожения
1016.9 987.7 -49.2
15 16.01 ЮВ 1 н/о туман ясно -49.3 -52.4 70 -56 -56 опасность
обморожения
1016.3 987.3
18 16.01 ЮВ 1 н/о туман ясно -47.6 -51.2 66 -54 -54 опасность
обморожения
1015.2 986.3
21 16.01 В 3 н/о туман 6/0
[Ci fib]
-46.1 -49.2 71 -59 -59 опасность
обморожения
1014.6 986.0
00 17.01 ЮВ 1 н/о туман 9/0
[Ci sp]
-45.4 -47.8 77 -51 -51 опасность
обморожения
1013.4 984.9 -49.8 51
03 17.01 штиль 0 2000 м дымка {туман} 10/0
[Cs]
-43.8 -46.9 71 -44 -44 опасность
обморожения
1013.8 985.4
06 17.01 штиль 0 4000 м слабый снег {туман} 10/0
[Ac trans Cs]
-43.0 -46.2 71 -43 -43 опасность
обморожения
1014.3 986.1
09 17.01 ЮВ 1 н/о слабый снег 10/0
[Ac trans Cs]
-42.5 -45.6 71 -48 -48 опасность
обморожения
1015.9 987.5
12 17.01 СВ 2 н/о слабый снег 10/0
[Ac As]
-40.0 -42.8 74 -49 -49 опасность
обморожения
1017.6 989.6 -40.0 0.5
15 17.01 С 3 н/о слабый снег {метель} 10/0
[Ac As]
-38.4 -42.0 69 -50 -50 опасность
обморожения
1019.4 991.6
18 17.01 С 2 н/о слабый снег {метель} 8/0
[Ac As]
-38.8 -42.5 68 -48 -48 опасность
обморожения
1022.0 994.0
21 17.01 С 1 н/о слабый снег 6/0
[Cs]
-40.1 -43.4 70 -45 -45 опасность
обморожения
1024.9 996.7

 

Местоположение метеостанции Тура (Эвенкия, Россия): широта 64.33 долгота 100.40 высота над уровнем моря 624 м.

В архиве по умолчанию представлена погода в Туре за последнюю неделю. Архивные данные за месяц целиком и за предыдущие месяцы, начиная с января 2011 года, Вы можете получить, выбрав интересующий диапазон дат из раскрывающегося списка и нажав кнопку "Ввод!".

Внимание! Время в таблицах - всемирное. Для получения местного времени необходимо прибавить поправку, которая в Туре равна 7 ч.

Смотрите также архив погоды в соседних городах и на ближайших метеорологических станциях:

Погода в Тембенчи (Эвенкия, Россия) (99 км)
Погода в Кербо (Эвенкия, Россия) (182 км)
Погода в Кислокане (Эвенкия, Россия) (190 км)
Погода в Стрелке-Чуне (Эвенкия, Россия) (311 км)
Погода в Тутончанах (Эвенкия, Россия) (320 км)
Погода в Муторае (Эвенкия, Россия) (334 км)
Погода в Байките (Эвенкия, Россия) (359 км)
Погода в Агате (Эвенкия, Россия) (426 км)
Погода в Усть-Камо (Эвенкия, Россия) (428 км)
Погода в Ванаваре (Эвенкия, Россия) (456 км)

Пояснения к столбцам:

Ветер - указаны скорость ветра в м/с - средняя за 10 мин, порывы в срок и между сроками (в фигурных скобках) и направление, откуда дует ветер: С - северный, СВ - северо-восточный, В - восточный, ЮВ - юго-восточный, Ю - южный, ЮЗ - юго-западный, З - западный, СЗ - северо-западный.
Видимость - горизонтальная дальность видимости в метрах или километрах. При видимости от 1 до 10 км при отсутствии осадков обычно наблюдается дымка, при ухудшении видимости до 1 км и менее - туман. В сухую погоду видимость может ухудшаться дымом, пылью или мглою.
Явления - указаны атмосферные явления, наблюдавшиеся в срок или в последний час перед сроком; фигурными скобками обозначены явления, наблюдавшиеся между сроками (за 1-3 часа до срока); квадратными скобками обозначены град или гололедные отложения с указанием их диаметра в мм.
Облачность - указаны через наклонную черту общая и нижняя облачность в баллах и высота нижней границы облаков в метрах; квадратными скобками обозначены формы облаков: Ci - перистые, Cs - перисто-слоистые, Cc - перисто-кучевые, Ac - высококучевые, As - высокослоистые, Sc - слоисто-кучевые, Ns - слоисто-дождевые, Cu - кучевые, Cb - кучево-дождевые. Подробнее классификацию облаков см. в Атласе облаков (PDF).
T - Температура воздуха - температура, измеренная на высоте 2 м над землей.
Td - Температура точки росы - температура, при понижении до которой содержащийся в воздухе водяной пар достигнет насыщения.
f - Относительная влажность воздуха - влажноcть воздуха, измеренная на высоте 2 м над землей.
Te - Эффективная температура - температура, которую ощущает одетый по сезону человек в тени. Характеристика душности погоды. При расчете учитывается влияние влажности воздуха и скорости ветра на теплоощущения человека.
Tes - Эффективная температура на солнце - температура, которую ощущает человек, с поправкой на солнечный нагрев. Характеристика знойности погоды. Зависит от высоты солнца над горизонтом, облачности и скорости ветра. Ночью, в пасмурную погоду, а также при ветре 12 м/с и более поправка равна нулю.
P - Атмосферное давление - приведенное к уровню моря атмосферное давление.
Po - Атмосферное давление - измеренное на уровне метеостанции атмосферное давление.
Tmin - Минимальная температура - минимум температуры воздуха на высоте 2 м над землей.
Tmax - Максимальная температура - максимум температуры воздуха на высоте 2 м над землей.
R - Количество осадков - Количество выпавших осадков за период времени, мм. При наведении курсора мыши на число - период времени, за который выпало указанное количество осадков.
R24 - Количество осадков - Количество выпавших осадков за 24 часа, мм.
S - Снежный покров - Высота снежного покрова, см. При наведении курсора мыши на число - состояние снежного покрова и степень покрытия местности в баллах.